Terminal Aerodrome Forecast
Issued by NWS

Home | Current Version | Previous Version | Text Only | Print | Product List | Glossary On
Versions: 1 2 3 4 5 6 7 8 9 10 11 12 13
000
FTUS45 KTFX 282326
TAFHLN
TAF
KHLN 282326Z 2900/2924 27015G22KT P6SM BKN090
     FM290200 27008KT P6SM SCT090
     FM291900 29010G17KT P6SM SKC=

USA.gov is the U.S. government's official web portal to all federal, state and local government web resources and services.